Погода в Хаддже

Йемен     15°41′48″N   43°35′50″E
темп.,
°C
ветер,
м/с
пор.,
м/с
влажн.,
%
обл.,
%
осадки,
мм/ч
давл.,
гПа
погр.,
м
1 декабря, ср
ср100:00+22з00690 0.0 1015158
03:00+22св22470 0.0 101422
06:00+20св32250 0.0 101522
09:00+24ссв22190 0.0 1016440
12:00+27з21170 0.0 10131356
15:00+28зюз33200 0.0 10111929
18:00+25з33420 0.0 1012585
21:00+23зюз11680 0.0 1014415
2 декабря, чт
чт200:00+22зсз00710 0.0 1014113
03:00+21с11640 0.0 101313
06:00+20св11440 0.0 101412
09:00+24с11230 0.0 1016428
12:00+27з32280 0.0 10131513
15:00+27з32321 0.0 10112048
18:00+24зюз33550 0.0 1013815
21:00+23зюз11660 0.0 1015489
3 декабря, пт
пт300:00+22зюз10700 0.0 1015232
03:00+21сз11740 0.0 101422
06:00+20сз11720 0.0 101515
09:00+23з21540 0.0 1017581
12:00+26зюз32400 0.0 10151442
15:00+27зюз43370 0.0 10131546
18:00+24зюз33570 0.0 1015725
21:00+22з11731 0.0 1017435
4 декабря, сб
сб400:00+21зюз10740 0.0 1016192
03:00+21с11670 0.0 101518
06:00+20св11480 0.0 101712
09:00+24ссв11180 0.0 1018462
12:00+27з21150 0.0 10161301
15:00+27зюз33260 0.0 10131806
18:00+25з43520 0.0 1014846
21:00+23юз11730 0.0 1017373
5 декабря, вс
вс500:00+22всв01740 0.0 1016125
03:00+21ссв11600 0.0 101513
06:00+21св11370 0.0 101613
09:00+24ссз11220 0.0 1018438
12:00+27зюз22240 0.0 10151209
15:00+28зюз32311 0.0 10121768
18:00+26з32455 0.0 1013870
21:00+23з11649 0.0 1016400